• In Deutschland
  • Länderverzeichnis
  • Für 7 Tage
  • Wassertemperatur
  • Satellitenkarten
  • Wetterkarte
  • Widgets
  • user-avatar
    Anmelden

    Stündliche Wetter Kchulna

    Heute, 25 April, Mittwoch

    Zeit Temperatur Niederschläge Wind Luftdruck Luftfeuchtigkeit
    00:00 +31°C° 0 mm 1 m/S 754 mmHg 69%
    01:00 +31°C° 0 mm 1 m/S 753 mmHg 72%
    02:00 +30°C° 0 mm 2 m/S 753 mmHg 75%
    03:00 +30°C° 0 mm 2 m/S 753 mmHg 78%
    04:00 +29°C° 0 mm 2 m/S 753 mmHg 80%
    05:00 +29°C° 0 mm 2 m/S 754 mmHg 83%
    06:00 +29°C° 0 mm 1 m/S 754 mmHg 83%
    07:00 +31°C° 0 mm 2 m/S 754 mmHg 72%
    08:00 +34°C° 0 mm 3 m/S 755 mmHg 61%
    09:00 +36°C° 0 mm 4 m/S 755 mmHg 51%
    10:00 +38°C° 0 mm 4 m/S 755 mmHg 44%
    11:00 +40°C° 0 mm 4 m/S 754 mmHg 37%
    12:00 +40°C° 0 mm 4 m/S 755 mmHg 35%
    13:00 +41°C° 0 mm 4 m/S 754 mmHg 33%
    14:00 +41°C° 0 mm 5 m/S 753 mmHg 30%
    15:00 +42°C° 0 mm 5 m/S 752 mmHg 28%
    16:00 +40°C° 2,5 mm 5 m/S 752 mmHg 37%
    17:00 +36°C° 2,5 mm 5 m/S 751 mmHg 47%
    18:00 +34°C° 2,5 mm 5 m/S 751 mmHg 56%
    19:00 +33°C° 1,5 mm 5 m/S 752 mmHg 62%
    20:00 +32°C° 1,5 mm 4 m/S 752 mmHg 67%
    21:00 +30°C° 1,5 mm 4 m/S 753 mmHg 73%
    22:00 +30°C° 0,1 mm 3 m/S 753 mmHg 76%
    23:00 +30°C° 0,1 mm 3 m/S 753 mmHg 78%

    Morgen, 26 April, Donnerstag

    Zeit Temperatur Niederschläge Wind Luftdruck Luftfeuchtigkeit
    00:00 +29°C° 0,1 mm 2 m/S 754 mmHg 81%
    01:00 +29°C° 0 mm 2 m/S 753 mmHg 82%
    02:00 +29°C° 0 mm 3 m/S 753 mmHg 84%
    03:00 +29°C° 0 mm 3 m/S 753 mmHg 85%
    04:00 +29°C° 0 mm 3 m/S 753 mmHg 86%
    05:00 +29°C° 0 mm 3 m/S 753 mmHg 87%
    06:00 +28°C° 0 mm 3 m/S 753 mmHg 87%
    07:00 +30°C° 0 mm 3 m/S 754 mmHg 78%
    08:00 +33°C° 0 mm 4 m/S 754 mmHg 69%
    09:00 +35°C° 0 mm 4 m/S 755 mmHg 59%
    10:00 +36°C° 0 mm 4 m/S 755 mmHg 51%
    11:00 +38°C° 0 mm 4 m/S 754 mmHg 43%
    12:00 +41°C° 0 mm 5 m/S 754 mmHg 35%
    13:00 +41°C° 0 mm 5 m/S 753 mmHg 35%
    14:00 +41°C° 0 mm 5 m/S 753 mmHg 35%
    15:00 +41°C° 0 mm 5 m/S 752 mmHg 35%
    16:00 +40°C° 0,1 mm 5 m/S 752 mmHg 41%
    17:00 +38°C° 0,1 mm 6 m/S 752 mmHg 47%
    18:00 +35°C° 0,1 mm 6 m/S 751 mmHg 53%
    19:00 +34°C° 0,8 mm 5 m/S 752 mmHg 61%
    20:00 +33°C° 0,8 mm 4 m/S 753 mmHg 68%
    21:00 +30°C° 0,8 mm 4 m/S 754 mmHg 75%
    22:00 +30°C° 0,1 mm 4 m/S 754 mmHg 75%
    23:00 +30°C° 0,1 mm 4 m/S 754 mmHg 75%

    übermorgen, 27 April, Freitag

    Zeit Temperatur Niederschläge Wind Luftdruck Luftfeuchtigkeit
    00:00 +30°C° 0,1 mm 4 m/S 754 mmHg 75%
    01:00 +30°C° 0 mm 4 m/S 754 mmHg 77%
    02:00 +30°C° 0 mm 4 m/S 754 mmHg 79%
    03:00 +29°C° 0 mm 4 m/S 754 mmHg 81%
    04:00 +29°C° 0 mm 3 m/S 754 mmHg 81%
    05:00 +29°C° 0 mm 3 m/S 755 mmHg 82%
    06:00 +29°C° 0 mm 3 m/S 755 mmHg 83%
    07:00 +32°C° 0 mm 4 m/S 755 mmHg 74%
    08:00 +34°C° 0 mm 4 m/S 756 mmHg 66%
    09:00 +35°C° 0 mm 5 m/S 757 mmHg 57%
    10:00 +37°C° 0 mm 5 m/S 756 mmHg 50%
    11:00 +40°C° 0 mm 5 m/S 756 mmHg 43%
    12:00 +41°C° 0 mm 5 m/S 756 mmHg 35%
    13:00 +42°C° 0 mm 5 m/S 755 mmHg 34%
    14:00 +42°C° 0 mm 6 m/S 754 mmHg 33%
    15:00 +42°C° 0 mm 6 m/S 754 mmHg 32%
    16:00 +41°C° 0 mm 6 m/S 753 mmHg 37%
    17:00 +39°C° 0 mm 5 m/S 753 mmHg 41%
    18:00 +37°C° 0 mm 5 m/S 753 mmHg 46%
    19:00 +35°C° 0 mm 5 m/S 754 mmHg 55%
    20:00 +33°C° 0 mm 5 m/S 754 mmHg 64%
    21:00 +32°C° 0 mm 6 m/S 755 mmHg 73%
    22:00 +32°C° 0 mm 5 m/S 755 mmHg 74%
    23:00 +30°C° 0 mm 4 m/S 755 mmHg 76%

    28 April, Samstag

    Zeit Temperatur Niederschläge Wind Luftdruck Luftfeuchtigkeit
    00:00 +30°C° 0 mm 4 m/S 755 mmHg 78%
    01:00 +30°C° 0 mm 3 m/S 755 mmHg 79%
    02:00 +30°C° 0 mm 3 m/S 755 mmHg 80%
    03:00 +29°C° 0 mm 2 m/S 754 mmHg 81%
    04:00 +29°C° 0 mm 2 m/S 755 mmHg 81%
    05:00 +29°C° 0 mm 2 m/S 755 mmHg 82%
    06:00 +29°C° 0 mm 2 m/S 755 mmHg 82%
    07:00 +31°C° 0 mm 3 m/S 756 mmHg 74%
    08:00 +33°C° 0 mm 3 m/S 757 mmHg 66%
    09:00 +34°C° 0 mm 3 m/S 757 mmHg 58%
    10:00 +36°C° 0 mm 4 m/S 757 mmHg 49%
    11:00 +38°C° 0 mm 4 m/S 756 mmHg 40%
    12:00 +41°C° 0 mm 5 m/S 756 mmHg 32%
    13:00 +42°C° 0 mm 5 m/S 755 mmHg 29%
    14:00 +42°C° 0 mm 6 m/S 754 mmHg 26%
    15:00 +44°C° 0 mm 6 m/S 754 mmHg 23%
    16:00 +41°C° 0 mm 6 m/S 753 mmHg 28%
    17:00 +39°C° 0 mm 6 m/S 753 mmHg 33%
    18:00 +38°C° 0 mm 6 m/S 753 mmHg 39%
    19:00 +35°C° 0 mm 5 m/S 754 mmHg 49%
    20:00 +33°C° 0 mm 5 m/S 754 mmHg 59%
    21:00 +32°C° 0 mm 5 m/S 755 mmHg 69%
    22:00 +30°C° 0 mm 5 m/S 755 mmHg 71%
    23:00 +30°C° 0 mm 5 m/S 755 mmHg 73%

    29 April, Sonntag

    Zeit Temperatur Niederschläge Wind Luftdruck Luftfeuchtigkeit
    00:00 +30°C° 0 mm 5 m/S 755 mmHg 76%
    01:00 +29°C° 0 mm 4 m/S 754 mmHg 77%
    02:00 +29°C° 0 mm 4 m/S 754 mmHg 79%
    03:00 +29°C° 0 mm 4 m/S 754 mmHg 81%
    04:00 +29°C° 0 mm 4 m/S 754 mmHg 81%
    05:00 +29°C° 0 mm 3 m/S 754 mmHg 80%
    06:00 +29°C° 0 mm 3 m/S 754 mmHg 80%
    07:00 +30°C° 0 mm 4 m/S 755 mmHg 73%
    08:00 +33°C° 0 mm 4 m/S 755 mmHg 66%
    09:00 +34°C° 0 mm 5 m/S 756 mmHg 59%
    10:00 +36°C° 0 mm 5 m/S 755 mmHg 51%
    11:00 +39°C° 0 mm 6 m/S 755 mmHg 43%
    12:00 +41°C° 0 mm 6 m/S 754 mmHg 35%
    13:00 +41°C° 0 mm 6 m/S 753 mmHg 35%
    14:00 +41°C° 0 mm 7 m/S 752 mmHg 36%
    15:00 +41°C° 0 mm 7 m/S 752 mmHg 37%
    16:00 +39°C° 0,2 mm 6 m/S 751 mmHg 43%
    17:00 +36°C° 0,2 mm 6 m/S 751 mmHg 49%
    18:00 +34°C° 0,2 mm 5 m/S 751 mmHg 56%
    19:00 +34°C° 0,2 mm 6 m/S 752 mmHg 60%
    20:00 +33°C° 0,2 mm 6 m/S 753 mmHg 65%
    21:00 +32°C° 0,2 mm 7 m/S 754 mmHg 70%
    22:00 +32°C° 0,2 mm 6 m/S 753 mmHg 71%
    23:00 +30°C° 0,2 mm 5 m/S 753 mmHg 71%

    30 April, Montag

    Zeit Temperatur Niederschläge Wind Luftdruck Luftfeuchtigkeit
    00:00 +30°C° 0,2 mm 4 m/S 753 mmHg 72%
    01:00 +30°C° 0 mm 4 m/S 752 mmHg 74%
    02:00 +30°C° 0 mm 4 m/S 752 mmHg 75%
    03:00 +29°C° 0 mm 4 m/S 752 mmHg 77%
    04:00 +29°C° 0,1 mm 3 m/S 753 mmHg 78%
    05:00 +29°C° 0,1 mm 3 m/S 753 mmHg 79%
    06:00 +29°C° 0,1 mm 2 m/S 754 mmHg 80%
    07:00 +30°C° 0,7 mm 3 m/S 754 mmHg 78%
    08:00 +30°C° 0,7 mm 4 m/S 755 mmHg 76%
    09:00 +30°C° 0,7 mm 5 m/S 755 mmHg 74%
    10:00 +30°C° 2,1 mm 6 m/S 755 mmHg 69%
    11:00 +30°C° 2,1 mm 6 m/S 755 mmHg 64%
    12:00 +30°C° 2,1 mm 7 m/S 755 mmHg 59%
    13:00 +33°C° 0,2 mm 7 m/S 754 mmHg 54%
    14:00 +35°C° 0,2 mm 7 m/S 753 mmHg 50%
    15:00 +38°C° 0,2 mm 6 m/S 753 mmHg 45%
    16:00 +36°C° 0 mm 6 m/S 752 mmHg 50%
    17:00 +35°C° 0 mm 6 m/S 752 mmHg 55%
    18:00 +34°C° 0 mm 5 m/S 752 mmHg 59%
    19:00 +33°C° 0 mm 5 m/S 753 mmHg 64%
    20:00 +32°C° 0 mm 5 m/S 754 mmHg 69%
    21:00 +30°C° 0 mm 4 m/S 755 mmHg 74%
    22:00 +30°C° 0 mm 5 m/S 754 mmHg 74%
    23:00 +30°C° 0 mm 6 m/S 754 mmHg 74%
    Mehr zeigen